Time,TemperatureF,DewpointF,PressureIn,WindDirection,WindDirectionDegrees,WindSpeedMPH,WindSpeedGustMPH,Humidity,HourlyPrecipIn,Conditions,Clouds,dailyrainin,SolarRadiationWatts/m^2,SoftwareType,DateUTC
2013-04-14 00:02:00,56.0,34.0,-100.00,NNW,339,1.0,4.0,43,0.00,,,0.00,0.000000,,2013-04-14 04:02:00,
2013-04-14 00:23:00,56.0,34.0,-100.00,NNW,339,1.0,4.0,43,0.00,,,0.00,0.000000,,2013-04-14 04:23:00,
2013-04-14 00:33:00,56.0,34.0,-100.00,NNW,339,1.0,4.0,43,0.00,,,0.00,0.000000,,2013-04-14 04:33:00,
2013-04-14 00:43:00,56.0,34.0,-100.00,NNW,339,1.0,4.0,43,0.00,,,0.00,0.000000,,2013-04-14 04:43:00,
2013-04-14 00:53:00,56.0,34.0,-100.00,NNW,339,1.0,4.0,43,0.00,,,0.00,0.000000,,2013-04-14 04:53:00,
2013-04-14 01:02:00,53.0,41.0,-100.00,North,359,2.0,2.0,64,0.00,,,0.00,0.000000,,2013-04-14 05:02:00,
2013-04-14 01:23:00,53.0,41.0,-100.00,North,359,2.0,2.0,64,0.00,,,0.00,0.000000,,2013-04-14 05:23:00,
2013-04-14 01:32:00,53.0,41.0,-100.00,North,359,2.0,2.0,64,0.00,,,0.00,0.000000,,2013-04-14 05:32:00,
2013-04-14 01:42:00,53.0,41.0,-100.00,North,359,2.0,2.0,64,0.00,,,0.00,0.000000,,2013-04-14 05:42:00,
2013-04-14 01:53:00,53.0,41.0,-100.00,North,359,2.0,2.0,64,0.00,,,0.00,0.000000,,2013-04-14 05:53:00,
2013-04-14 02:02:00,51.0,35.0,-100.00,North,8,2.0,3.0,55,0.00,,,0.00,0.000000,,2013-04-14 06:02:00,
2013-04-14 02:22:00,51.0,35.0,-100.00,North,8,2.0,3.0,55,0.00,,,0.00,0.000000,,2013-04-14 06:22:00,
2013-04-14 02:32:00,51.0,35.0,-100.00,North,8,2.0,3.0,55,0.00,,,0.00,0.000000,,2013-04-14 06:32:00,
2013-04-14 02:42:00,51.0,35.0,-100.00,North,8,2.0,3.0,55,0.00,,,0.00,0.000000,,2013-04-14 06:42:00,
2013-04-14 02:53:00,51.0,35.0,-100.00,North,8,2.0,3.0,55,0.00,,,0.00,0.000000,,2013-04-14 06:53:00,
2013-04-14 03:02:00,49.0,36.0,-100.00,South,172,2.0,3.0,61,0.00,,,0.00,0.000000,,2013-04-14 07:02:00,
2013-04-14 03:23:00,49.0,36.0,-100.00,South,172,2.0,3.0,61,0.00,,,0.00,0.000000,,2013-04-14 07:23:00,
2013-04-14 03:33:00,49.0,36.0,-100.00,South,172,2.0,3.0,61,0.00,,,0.00,0.000000,,2013-04-14 07:33:00,
2013-04-14 03:42:00,49.0,36.0,-100.00,South,172,2.0,3.0,61,0.00,,,0.00,0.000000,,2013-04-14 07:42:00,
2013-04-14 03:52:00,49.0,36.0,-100.00,South,172,2.0,3.0,61,0.00,,,0.00,0.000000,,2013-04-14 07:52:00,
2013-04-14 04:02:00,47.0,37.0,-100.00,NNE,29,1.0,3.0,67,0.00,,,-99.99,0.000000,,2013-04-14 08:02:00,
2013-04-14 04:33:00,47.0,37.0,-100.00,NNE,29,1.0,3.0,67,0.00,,,-99.99,0.000000,,2013-04-14 08:33:00,
2013-04-14 04:43:00,47.0,37.0,-100.00,NNE,29,1.0,3.0,67,0.00,,,-99.99,0.000000,,2013-04-14 08:43:00,
2013-04-14 04:52:00,47.0,37.0,-100.00,NNE,29,1.0,3.0,67,0.00,,,-99.99,0.000000,,2013-04-14 08:52:00,
2013-04-14 05:02:00,48.0,38.0,-100.00,NW,320,1.0,5.0,68,0.00,,,0.00,0.000000,,2013-04-14 09:02:00,
2013-04-14 05:22:00,48.0,38.0,-100.00,NW,320,1.0,5.0,68,0.00,,,0.00,0.000000,,2013-04-14 09:22:00,
2013-04-14 05:33:00,48.0,38.0,-100.00,NW,320,1.0,5.0,68,0.00,,,0.00,0.000000,,2013-04-14 09:33:00,
2013-04-14 05:43:00,48.0,38.0,-100.00,NW,320,1.0,5.0,68,0.00,,,0.00,0.000000,,2013-04-14 09:43:00,
2013-04-14 05:54:00,48.0,38.0,-100.00,NW,320,1.0,5.0,68,0.00,,,0.00,0.000000,,2013-04-14 09:54:00,
2013-04-14 06:02:00,46.0,35.0,-100.00,NE,43,2.0,4.0,64,0.00,,,0.00,0.000000,,2013-04-14 10:02:00,
2013-04-14 06:23:00,46.0,35.0,-100.00,NE,43,2.0,4.0,64,0.00,,,0.00,0.000000,,2013-04-14 10:23:00,
2013-04-14 06:33:00,46.0,35.0,-100.00,NE,43,2.0,4.0,64,0.00,,,0.00,0.000000,,2013-04-14 10:33:00,
2013-04-14 06:43:00,46.0,35.0,-100.00,NE,43,2.0,4.0,64,0.00,,,0.00,0.000000,,2013-04-14 10:43:00,
2013-04-14 06:53:00,46.0,35.0,-100.00,NE,43,2.0,4.0,64,0.00,,,0.00,0.000000,,2013-04-14 10:53:00,
2013-04-14 07:02:00,49.0,35.0,-100.00,NE,44,2.0,4.0,58,0.00,,,0.00,0.000000,,2013-04-14 11:02:00,
2013-04-14 07:23:00,49.0,35.0,-100.00,NE,44,2.0,4.0,58,0.00,,,0.00,0.000000,,2013-04-14 11:23:00,
2013-04-14 07:33:00,49.0,35.0,-100.00,NE,44,2.0,4.0,58,0.00,,,0.00,0.000000,,2013-04-14 11:33:00,
2013-04-14 07:42:00,49.0,35.0,-100.00,NE,44,2.0,4.0,58,0.00,,,0.00,0.000000,,2013-04-14 11:42:00,
2013-04-14 07:53:00,49.0,35.0,-100.00,NE,44,2.0,4.0,58,0.00,,,0.00,0.000000,,2013-04-14 11:53:00,
2013-04-14 08:02:00,51.0,34.0,-100.00,NNE,24,3.0,4.0,53,0.00,,,0.00,25.000000,,2013-04-14 12:02:00,
2013-04-14 08:22:00,51.0,34.0,-100.00,NNE,24,3.0,4.0,53,0.00,,,0.00,25.000000,,2013-04-14 12:22:00,
2013-04-14 08:32:00,51.0,34.0,-100.00,NNE,24,3.0,4.0,53,0.00,,,0.00,25.000000,,2013-04-14 12:32:00,
2013-04-14 08:42:00,51.0,34.0,-100.00,NNE,24,3.0,4.0,53,0.00,,,0.00,25.000000,,2013-04-14 12:42:00,
2013-04-14 08:52:00,51.0,34.0,-100.00,NNE,24,3.0,4.0,53,0.00,,,0.00,25.000000,,2013-04-14 12:52:00,
2013-04-14 09:02:00,53.0,40.0,-100.00,NNW,348,2.0,4.0,62,0.00,,,0.00,104.000000,,2013-04-14 13:02:00,
2013-04-14 09:33:00,53.0,40.0,-100.00,NNW,348,2.0,4.0,62,0.00,,,0.00,104.000000,,2013-04-14 13:33:00,
2013-04-14 09:43:00,53.0,40.0,-100.00,NNW,348,2.0,4.0,62,0.00,,,0.00,104.000000,,2013-04-14 13:43:00,
2013-04-14 09:52:00,53.0,40.0,-100.00,NNW,348,2.0,4.0,62,0.00,,,0.00,104.000000,,2013-04-14 13:52:00,
2013-04-14 10:02:00,60.0,42.0,-100.00,South,177,2.0,5.0,51,0.00,,,0.00,178.000000,,2013-04-14 14:02:00,
2013-04-14 10:32:00,60.0,42.0,-100.00,South,177,2.0,5.0,51,0.00,,,0.00,178.000000,,2013-04-14 14:32:00,
2013-04-14 10:42:00,60.0,42.0,-100.00,South,177,2.0,5.0,51,0.00,,,0.00,178.000000,,2013-04-14 14:42:00,
2013-04-14 10:53:00,60.0,42.0,-100.00,South,177,2.0,5.0,51,0.00,,,0.00,178.000000,,2013-04-14 14:53:00,
2013-04-14 11:02:00,61.0,42.0,-100.00,SE,142,2.0,4.0,49,0.00,,,0.00,171.000000,,2013-04-14 15:02:00,
2013-04-14 11:34:00,61.0,42.0,-100.00,SE,142,2.0,4.0,49,0.00,,,0.00,171.000000,,2013-04-14 15:34:00,
2013-04-14 11:44:00,61.0,42.0,-100.00,SE,142,2.0,4.0,49,0.00,,,0.00,171.000000,,2013-04-14 15:44:00,
2013-04-14 11:53:00,61.0,42.0,-100.00,SE,142,2.0,4.0,49,0.00,,,0.00,171.000000,,2013-04-14 15:53:00,
2013-04-14 12:02:00,63.0,41.0,-100.00,SSE,165,2.0,6.0,45,0.00,,,0.00,175.000000,,2013-04-14 16:02:00,
2013-04-14 12:23:00,63.0,41.0,-100.00,SSE,165,2.0,6.0,45,0.00,,,0.00,175.000000,,2013-04-14 16:23:00,
2013-04-14 12:33:00,63.0,41.0,-100.00,SSE,165,2.0,6.0,45,0.00,,,0.00,175.000000,,2013-04-14 16:33:00,
2013-04-14 12:43:00,63.0,41.0,-100.00,SSE,165,2.0,6.0,45,0.00,,,0.00,175.000000,,2013-04-14 16:43:00,
2013-04-14 12:53:00,63.0,41.0,-100.00,SSE,165,2.0,6.0,45,0.00,,,0.00,175.000000,,2013-04-14 16:53:00,
2013-04-14 13:02:00,63.0,45.0,-100.00,SSE,160,2.0,6.0,51,0.00,,,0.00,149.000000,,2013-04-14 17:02:00,
2013-04-14 13:23:00,63.0,45.0,-100.00,SSE,160,2.0,6.0,51,0.00,,,0.00,149.000000,,2013-04-14 17:23:00,
2013-04-14 13:33:00,63.0,45.0,-100.00,SSE,160,2.0,6.0,51,0.00,,,0.00,149.000000,,2013-04-14 17:33:00,
2013-04-14 13:43:00,63.0,45.0,-100.00,SSE,160,2.0,6.0,51,0.00,,,0.00,149.000000,,2013-04-14 17:43:00,
2013-04-14 13:53:00,63.0,45.0,-100.00,SSE,160,2.0,6.0,51,0.00,,,0.00,149.000000,,2013-04-14 17:53:00,
2013-04-14 14:02:00,62.0,47.0,-100.00,SSE,157,2.0,4.0,58,0.00,,,0.00,104.000000,,2013-04-14 18:02:00,
2013-04-14 14:22:00,62.0,47.0,-100.00,SSE,157,2.0,4.0,58,0.00,,,0.00,104.000000,,2013-04-14 18:22:00,
2013-04-14 14:33:00,62.0,47.0,-100.00,SSE,157,2.0,4.0,58,0.00,,,0.00,104.000000,,2013-04-14 18:33:00,
2013-04-14 14:43:00,62.0,47.0,-100.00,SSE,157,2.0,4.0,58,0.00,,,0.00,104.000000,,2013-04-14 18:43:00,
2013-04-14 14:54:00,62.0,47.0,-100.00,SSE,157,2.0,4.0,58,0.00,,,0.00,104.000000,,2013-04-14 18:54:00,
2013-04-14 15:02:00,60.0,51.0,-100.00,South,175,2.0,4.0,73,0.00,,,0.00,94.000000,,2013-04-14 19:02:00,
2013-04-14 15:33:00,60.0,51.0,-100.00,South,175,2.0,4.0,73,0.00,,,0.00,94.000000,,2013-04-14 19:33:00,
2013-04-14 15:43:00,60.0,51.0,-100.00,South,175,2.0,4.0,73,0.00,,,0.00,94.000000,,2013-04-14 19:43:00,
2013-04-14 15:53:00,60.0,51.0,-100.00,South,175,2.0,4.0,73,0.00,,,0.00,94.000000,,2013-04-14 19:53:00,
2013-04-14 16:02:00,56.0,54.0,-100.00,SSE,155,1.0,3.0,93,0.07,,,0.07,85.000000,,2013-04-14 20:02:00,
2013-04-14 16:33:00,56.0,54.0,-100.00,SSE,155,1.0,3.0,93,0.07,,,0.07,85.000000,,2013-04-14 20:33:00,
2013-04-14 16:43:00,56.0,54.0,-100.00,SSE,155,1.0,3.0,93,0.07,,,0.07,85.000000,,2013-04-14 20:43:00,
2013-04-14 16:53:00,56.0,54.0,-100.00,SSE,155,1.0,3.0,93,0.07,,,0.07,85.000000,,2013-04-14 20:53:00,
2013-04-14 17:02:00,57.0,54.0,-100.00,SE,133,3.0,8.0,90,0.02,,,0.09,141.000000,,2013-04-14 21:02:00,
2013-04-14 17:33:00,57.0,54.0,-100.00,SE,133,3.0,8.0,90,0.02,,,0.09,141.000000,,2013-04-14 21:33:00,
2013-04-14 17:43:00,57.0,54.0,-100.00,SE,133,3.0,8.0,90,0.02,,,0.09,141.000000,,2013-04-14 21:43:00,
2013-04-14 17:53:00,57.0,54.0,-100.00,SE,133,3.0,8.0,90,0.02,,,0.09,141.000000,,2013-04-14 21:53:00,
2013-04-14 18:02:00,57.0,53.0,-100.00,SE,132,3.0,14.0,85,0.00,,,0.09,82.000000,,2013-04-14 22:02:00,
2013-04-14 18:33:00,57.0,53.0,-100.00,SE,132,3.0,14.0,85,0.00,,,0.09,82.000000,,2013-04-14 22:33:00,
2013-04-14 18:44:00,57.0,53.0,-100.00,SE,132,3.0,14.0,85,0.00,,,0.09,82.000000,,2013-04-14 22:44:00,
2013-04-14 18:53:00,57.0,53.0,-100.00,SE,132,3.0,14.0,85,0.00,,,0.09,82.000000,,2013-04-14 22:53:00,
2013-04-14 19:02:00,57.0,52.0,-100.00,ESE,111,4.0,13.0,83,0.00,,,0.09,31.000000,,2013-04-14 23:02:00,
2013-04-14 19:23:00,57.0,52.0,-100.00,ESE,111,4.0,13.0,83,0.00,,,0.09,31.000000,,2013-04-14 23:23:00,
2013-04-14 19:33:00,57.0,52.0,-100.00,ESE,111,4.0,13.0,83,0.00,,,0.09,31.000000,,2013-04-14 23:33:00,
2013-04-14 19:43:00,57.0,52.0,-100.00,ESE,111,4.0,13.0,83,0.00,,,0.09,31.000000,,2013-04-14 23:43:00,
2013-04-14 19:53:00,57.0,52.0,-100.00,ESE,111,4.0,13.0,83,0.00,,,0.09,31.000000,,2013-04-14 23:53:00,
2013-04-14 20:02:00,56.0,51.0,-100.00,ESE,117,2.0,10.0,84,0.00,,,0.09,8.000000,,2013-04-15 00:02:00,
2013-04-14 20:23:00,56.0,51.0,-100.00,ESE,117,2.0,10.0,84,0.00,,,0.09,8.000000,,2013-04-15 00:23:00,
2013-04-14 20:33:00,56.0,51.0,-100.00,ESE,117,2.0,10.0,84,0.00,,,0.09,8.000000,,2013-04-15 00:33:00,
2013-04-14 20:43:00,56.0,51.0,-100.00,ESE,117,2.0,10.0,84,0.00,,,0.09,8.000000,,2013-04-15 00:43:00,
2013-04-14 20:53:00,56.0,51.0,-100.00,ESE,117,2.0,10.0,84,0.00,,,0.09,8.000000,,2013-04-15 00:53:00,
2013-04-14 21:02:00,56.0,51.0,-100.00,NNE,27,2.0,6.0,84,0.00,,,0.09,0.000000,,2013-04-15 01:02:00,
2013-04-14 21:33:00,56.0,51.0,-100.00,NNE,27,2.0,6.0,84,0.00,,,0.09,0.000000,,2013-04-15 01:33:00,
2013-04-14 21:43:00,56.0,51.0,-100.00,NNE,27,2.0,6.0,84,0.00,,,0.09,0.000000,,2013-04-15 01:43:00,
2013-04-14 21:52:00,56.0,51.0,-100.00,NNE,27,2.0,6.0,84,0.00,,,0.09,0.000000,,2013-04-15 01:52:00,
2013-04-14 22:02:00,54.0,53.0,-100.00,NE,47,2.0,5.0,95,0.05,,,0.14,0.000000,,2013-04-15 02:02:00,
2013-04-14 22:22:00,54.0,53.0,-100.00,NE,47,2.0,5.0,95,0.05,,,0.14,0.000000,,2013-04-15 02:22:00,
2013-04-14 22:32:00,54.0,53.0,-100.00,NE,47,2.0,5.0,95,0.05,,,0.14,0.000000,,2013-04-15 02:32:00,
2013-04-14 22:42:00,54.0,53.0,-100.00,NE,47,2.0,5.0,95,0.05,,,0.14,0.000000,,2013-04-15 02:42:00,
2013-04-14 22:53:00,54.0,53.0,-100.00,NE,47,2.0,5.0,95,0.05,,,0.14,0.000000,,2013-04-15 02:53:00,
2013-04-14 23:02:00,53.0,52.0,-100.00,NNE,21,3.0,5.0,97,0.02,,,0.16,0.000000,,2013-04-15 03:02:00,
2013-04-14 23:33:00,53.0,52.0,-100.00,NNE,21,3.0,5.0,97,0.02,,,0.16,0.000000,,2013-04-15 03:33:00,
2013-04-14 23:43:00,53.0,52.0,-100.00,NNE,21,3.0,5.0,97,0.02,,,0.16,0.000000,,2013-04-15 03:43:00,
2013-04-14 23:55:00,53.0,52.0,-100.00,NNE,21,3.0,5.0,97,0.02,,,0.16,0.000000,,2013-04-15 03:55:00,